sat.trackr.live / text

‹ back to catalog

TEVEL2-1

NORAD 63217 · 2025-052H

PAYLOAD ACTIVE UNKNOWN

§ Identity

Operator
Country
ISRA
Launch date
2025-03-15
Launch site
AFWTR
Launch vehicle
Mass (kg)
RCS (m²)

Purposes: comms

External: N2YO · Heavens-Above · Gunter

§ Orbital elements

Epoch: 2026-09-19T03:50:35.111904Z

Period
93.70 min
Inclination
97.3727°
Eccentricity
0.0004201
Mean motion
15.36766162 rev/d
Perigee alt
452.8 km
Apogee alt
458.6 km
Semi-major
6,833.8 km
B*
3.6695e-4
RAAN
158.2529°
Arg perigee
121.9351°
Mean anomaly
238.2303°
Rev number
8,451

§ Raw data

TEVEL2-11 63217U 25052H   26262.16012861  .00013111  00000+0  36695-3 0  99942 63217  97.3727 158.2529 0004201 121.9351 238.2303 15.36766162 84519

JSON: /api/v1/satellites/63217 · /tle

For live sub-satellite position, see the globe view (requires WebGL).

§ Visibility from observer

Set your observer location to see the next 7 days of passes ≥ 10°. The values pass through the URL so the page stays shareable.

No JS? Fill the form by hand. The geolocation button needs JavaScript.

§ Radio — SatNOGS DB

ModeDescriptionDownlinkUplink
BPSK Mode U - BPSK9k6 G3RUH - Beacon 436.400 MHz
FM Mode V/U - FM Transponder 436.400 MHz 145.970 MHz

2 transmitters · refreshed weekly from db.satnogs.org